| time (UTC) | temp C | wind direction | speed KPH | gust KPH | rain 1hr cm | rain 24hr cm | rain mn cm | humidity % | barometer mb |
| 20260502201729 | 10 | 339 | 0.0 | 3.2 | 0.00 | 0.58 | 0.58 | 76 | 1012.6 |
| 20260502200826 | 11 | 306 | 1.6 | 1.6 | 0.00 | 0.58 | 0.58 | 74 | 1012.6 |
| 20260502195827 | 11 | 153 | 0.0 | 3.2 | 0.00 | 0.58 | 0.58 | 74 | 1012.8 |
| 20260502194926 | 11 | 234 | 4.8 | 9.7 | 0.00 | 0.58 | 0.58 | 72 | 1012.5 |
| 20260502194828 | 11 | 240 | 3.2 | 6.4 | 0.00 | 0.58 | 0.58 | 73 | 1012.5 |
| 20260502192844 | 11 | 127 | 3.2 | 4.8 | 0.00 | 0.58 | 0.58 | 69 | 1012.7 |
| 20260502191831 | 12 | 211 | 3.2 | 8.0 | 0.00 | 0.58 | 0.58 | 65 | 1012.7 |
| 20260502184929 | 11 | 190 | 4.8 | 12.9 | 0.00 | 0.58 | 0.58 | 76 | 1012.8 |
| 20260502183026 | 11 | 272 | 6.4 | 11.3 | 0.00 | 0.58 | 0.58 | 82 | 1013.0 |
| 20260502181845 | 10 | 146 | 3.2 | 6.4 | 0.00 | 0.58 | 0.58 | 86 | 1013.3 |
| 20260502180927 | 10 | 258 | 4.8 | 9.7 | 0.00 | 0.58 | 0.58 | 88 | 1013.5 |
| 20260502164027 | 8 | 337 | 3.2 | 6.4 | 0.08 | 0.53 | 0.53 | 84 | 1013.7 |
| 20260502163029 | 10 | 265 | 6.4 | 9.7 | 0.00 | 0.46 | 0.46 | 79 | 1013.6 |
| 20260502151927 | 8 | 135 | 0.0 | 0.0 | 0.00 | 0.46 | 0.46 | 90 | 1014.3 |
| 20260502140127 | 6 | 22 | 1.6 | 1.6 | 0.00 | 0.46 | 0.46 | 90 | 1014.7 |
| 20260502130128 | 6 | 225 | 0.0 | 0.0 | 0.00 | 0.46 | 0.46 | 90 | 1014.8 |
| 20260502123228 | 6 | 157 | 0.0 | 0.0 | 0.03 | 0.46 | 0.46 | 91 | 1015.0 |
| 20260502122325 | 6 | 157 | 0.0 | 0.0 | 0.05 | 0.46 | 0.46 | 90 | 1015.0 |
| 20260502122229 | 6 | 157 | 0.0 | 0.0 | 0.05 | 0.46 | 0.46 | 91 | 1015.0 |
| 20260502121227 | 6 | 157 | 0.0 | 0.0 | 0.08 | 0.46 | 0.46 | 91 | 1015.0 |
| 20260502120226 | 6 | 157 | 0.0 | 0.0 | 0.08 | 0.46 | 0.46 | 91 | 1015.1 |
| 20260502115227 | 5 | 157 | 0.0 | 0.0 | 0.08 | 0.46 | 0.46 | 91 | 1015.0 |
| 20260502114227 | 5 | 157 | 0.0 | 0.0 | 0.08 | 0.46 | 0.46 | 91 | 1014.9 |
| 20260502112327 | 5 | 211 | 0.0 | 1.6 | 0.03 | 0.41 | 0.41 | 91 | 1015.0 |
| 20260502111328 | 5 | 247 | 1.6 | 4.8 | 0.00 | 0.38 | 0.38 | 91 | 1014.9 |
| 20260502110426 | 5 | 180 | 0.0 | 1.6 | 0.00 | 0.38 | 0.38 | 91 | 1014.7 |
| 20260502105428 | 5 | 180 | 0.0 | 0.0 | 0.03 | 0.38 | 0.38 | 90 | 1014.6 |
| 20260502104325 | 5 | 180 | 0.0 | 0.0 | 0.05 | 0.38 | 0.38 | 90 | 1014.4 |
| 20260502103343 | 5 | 180 | 0.0 | 0.0 | 0.08 | 0.38 | 0.38 | 90 | 1014.2 |
| 20260502102427 | 5 | 180 | 0.0 | 0.0 | 0.08 | 0.38 | 0.38 | 91 | 1014.3 |
| 20260502101427 | 5 | 180 | 0.0 | 0.0 | 0.13 | 0.38 | 0.38 | 90 | 1014.4 |
| 20260502100426 | 5 | 180 | 0.0 | 0.0 | 0.13 | 0.38 | 0.38 | 91 | 1014.5 |
| 20260502091428 | 5 | 180 | 1.6 | 1.6 | 0.13 | 0.25 | 0.25 | 90 | 1014.4 |
| 20260502090527 | 5 | 22 | 1.6 | 1.6 | 0.18 | 0.25 | 0.25 | 90 | 1014.4 |
| 20260502071228 | 5 | 157 | 0.0 | 0.0 | 0.03 | 0.03 | 0.03 | 90 | 1014.8 |
| 20260502070225 | 5 | 157 | 0.0 | 0.0 | 0.03 | 0.03 | 0.03 | 90 | 1014.8 |
| 20260502070141 | 5 | 157 | 1.6 | 3.2 | 0.03 | 0.03 | 0.03 | 90 | 1014.8 |
| 20260502065128 | 6 | 180 | 0.0 | 1.6 | 0.03 | 0.03 | 0.03 | 89 | 1014.8 |
| 20260502064127 | 6 | 180 | 1.6 | 3.2 | 0.03 | 0.03 | 0.03 | 89 | 1014.7 |
| 20260502063126 | 6 | 180 | 1.6 | 3.2 | 0.00 | 0.00 | 0.00 | 87 | 1014.9 |
| 20260502063026 | 6 | 180 | 1.6 | 1.6 | 0.00 | 0.00 | 0.00 | 88 | 1014.9 |
| 20260502061027 | 6 | 18 | 4.8 | 6.4 | 0.00 | 0.00 | 0.00 | 85 | 1015.0 |
| 20260502055125 | 5 | 337 | 0.0 | 0.0 | 0.00 | 0.00 | 0.00 | 84 | 1015.1 |
| 20260502054128 | 5 | 182 | 1.6 | 1.6 | 0.00 | 0.00 | 0.00 | 83 | 1015.0 |
| 20260502052226 | 5 | 180 | 4.8 | 6.4 | 0.00 | 0.00 | 0.00 | 79 | 1015.1 |
| 20260502051227 | 5 | 247 | 0.0 | 1.6 | 0.00 | 0.00 | 0.00 | 79 | 1015.1 |
| 20260502045326 | 5 | 139 | 1.6 | 4.8 | 0.00 | 0.00 | 0.00 | 78 | 1014.6 |
| 20260502045227 | 5 | 179 | 0.0 | 1.6 | 0.00 | 0.00 | 0.00 | 79 | 1014.7 |
| 20260502044227 | 5 | 247 | 1.6 | 3.2 | 0.00 | 0.00 | 0.00 | 78 | 1014.8 |
| 20260502044126 | 5 | 135 | 0.0 | 3.2 | 0.00 | 0.00 | 0.00 | 77 | 1014.8 |
| 20260502044026 | 5 | 112 | 0.0 | 0.0 | 0.00 | 0.00 | 0.00 | 77 | 1014.7 |
| 20260502042028 | 5 | 180 | 0.0 | 0.0 | 0.00 | 0.00 | 0.00 | 76 | 1014.5 |
| 20260502041125 | 5 | 180 | 0.0 | 0.0 | 0.00 | 0.00 | 0.00 | 76 | 1014.5 |
| 20260502040128 | 5 | 360 | 0.0 | 0.0 | 0.00 | 0.00 | 0.00 | 76 | 1014.5 |
| 20260502034135 | 5 | 180 | 0.0 | 0.0 | 0.00 | 0.00 | 0.00 | 76 | 1014.4 |
| 20260502034053 | 5 | 180 | 0.0 | 0.0 | 0.00 | 0.00 | 0.00 | 75 | 1014.4 |
| 20260502031135 | 5 | 157 | 0.0 | 0.0 | 0.00 | 0.00 | 0.00 | 75 | 1014.3 |
| 20260502030135 | 6 | 22 | 0.0 | 0.0 | 0.00 | 0.00 | 0.00 | 72 | 1014.3 |
| 20260502025135 | 6 | 22 | 0.0 | 0.0 | 0.00 | 0.00 | 0.00 | 71 | 1014.2 |
| 20260502024136 | 6 | 22 | 0.0 | 0.0 | 0.00 | 0.00 | 0.00 | 73 | 1014.3 |
| 20260502023234 | 5 | 22 | 0.0 | 0.0 | 0.00 | 0.00 | 0.00 | 74 | 1014.3 |
| 20260502022234 | 5 | 22 | 1.6 | 1.6 | 0.00 | 0.00 | 0.00 | 73 | 1014.3 |
| 20260502022133 | 5 | 22 | 1.6 | 1.6 | 0.00 | 0.00 | 0.00 | 74 | 1014.3 |
| 20260502022036 | 5 | 22 | 0.0 | 1.6 | 0.00 | 0.00 | 0.00 | 73 | 1014.3 |
| 20260502021035 | 5 | 22 | 0.0 | 0.0 | 0.00 | 0.00 | 0.00 | 71 | 1014.4 |
| 20260502020951 | 5 | 22 | 0.0 | 0.0 | 0.00 | 0.00 | 0.00 | 71 | 1014.4 |
| 20260502020037 | 5 | 22 | 0.0 | 0.0 | 0.00 | 0.00 | 0.00 | 70 | 1014.5 |
| 20260502015049 | 6 | 22 | 0.0 | 0.0 | 0.00 | 0.00 | 0.00 | 69 | 1014.5 |
| 20260502014036 | 6 | 22 | 0.0 | 0.0 | 0.00 | 0.00 | 0.00 | 69 | 1014.4 |
| 20260502013933 | 6 | 22 | 0.0 | 0.0 | 0.00 | 0.00 | 0.00 | 70 | 1014.4 |
| 20260502012950 | 6 | 22 | 0.0 | 0.0 | 0.00 | 0.00 | 0.00 | 68 | 1014.4 |
| 20260502012034 | 6 | 22 | 0.0 | 0.0 | 0.00 | 0.00 | 0.00 | 66 | 1014.4 |
| 20260502011933 | 6 | 22 | 0.0 | 0.0 | 0.00 | 0.00 | 0.00 | 66 | 1014.4 |
| 20260502011033 | 6 | 22 | 0.0 | 0.0 | 0.00 | 0.00 | 0.00 | 64 | 1014.2 |
| 20260502004935 | 7 | 22 | 0.0 | 0.0 | 0.00 | 0.03 | 0.00 | 60 | 1014.1 |
| 20260502002935 | 8 | 22 | 0.0 | 0.0 | 0.00 | 0.03 | 0.00 | 57 | 1013.8 |
| 20260502001934 | 9 | 22 | 1.6 | 1.6 | 0.00 | 0.03 | 0.00 | 53 | 1013.6 |
| 20260502000933 | 10 | 22 | 0.0 | 0.0 | 0.00 | 0.03 | 0.00 | 47 | 1013.5 |
| 20260501234950 | 11 | 337 | 0.0 | 0.0 | 0.00 | 0.10 | 0.00 | 39 | 1013.2 |
| 20260501234033 | 12 | 292 | 0.0 | 0.0 | 0.00 | 0.10 | 0.00 | 38 | 1013.3 |
| 20260501233038 | 12 | 306 | 0.0 | 1.6 | 0.00 | 0.10 | 0.00 | 35 | 1012.8 |
| 20260501231936 | 13 | 336 | 3.2 | 3.2 | 0.00 | 0.10 | 0.00 | 34 | 1012.7 |
| 20260501230953 | 13 | 256 | 3.2 | 4.8 | 0.00 | 0.10 | 0.00 | 33 | 1012.5 |
| 20260501230035 | 13 | 305 | 3.2 | 9.7 | 0.00 | 0.10 | 0.00 | 34 | 1012.4 |
| 20260501225034 | 13 | 3 | 1.6 | 4.8 | 0.00 | 0.10 | 0.00 | 33 | 1012.4 |
| 20260501224936 | 13 | 344 | 4.8 | 11.3 | 0.00 | 0.10 | 0.00 | 33 | 1012.3 |
| 20260501223036 | 13 | 268 | 1.6 | 6.4 | 0.00 | 0.10 | 0.00 | 34 | 1012.4 |
| 20260501221035 | 14 | 255 | 3.2 | 11.3 | 0.00 | 0.10 | 0.00 | 33 | 1012.1 |
| 20260501220133 | 13 | 249 | 6.4 | 12.9 | 0.00 | 0.10 | 0.00 | 33 | 1012.3 |
| 20260501215134 | 13 | 268 | 8.0 | 12.9 | 0.00 | 0.10 | 0.00 | 33 | 1012.2 |
| 20260501214134 | 13 | 244 | 1.6 | 9.7 | 0.00 | 0.10 | 0.00 | 32 | 1012.3 |
| 20260501213135 | 14 | 273 | 12.9 | 20.9 | 0.00 | 0.13 | 0.00 | 32 | 1012.2 |
| 20260501212136 | 14 | 341 | 3.2 | 6.4 | 0.00 | 0.13 | 0.00 | 33 | 1012.1 |
| 20260501211134 | 13 | 277 | 3.2 | 8.0 | 0.00 | 0.13 | 0.00 | 33 | 1012.2 |
| 20260501210152 | 13 | 337 | 0.0 | 3.2 | 0.00 | 0.13 | 0.00 | 34 | 1011.9 |
| 20260501205234 | 13 | 231 | 3.2 | 4.8 | 0.00 | 0.13 | 0.00 | 33 | 1011.8 |
| 20260501204235 | 13 | 341 | 8.0 | 19.3 | 0.00 | 0.13 | 0.00 | 34 | 1011.8 |
| 20260501204136 | 13 | 331 | 11.3 | 17.7 | 0.00 | 0.13 | 0.00 | 33 | 1011.8 |
| 20260501203233 | 14 | 248 | 6.4 | 12.9 | 0.00 | 0.13 | 0.00 | 33 | 1011.6 |
| 20260501203133 | 14 | 258 | 6.4 | 11.3 | 0.00 | 0.13 | 0.00 | 33 | 1011.7 |